Regional Weather Roundup
Issued by NWS Midland/Odessa, TX

Skip options and go directly to product.
Home | Oldest Version | Previous Version | Current Version | All | Graphics & Text | Save Text | Print | Product List | Glossary On

Skip product version selection by date and time.   
237
ASUS44 KMAF 280410
RWRMAF
MIDLAND AREA WEATHER ROUNDUP
NATIONAL WEATHER SERVICE MIDLAND TX
1000 PM CST THU NOV 27 2014

...IN SOUTHWEST TEXAS AND SOUTHEAST NEW MEXICO...

CITY           SKY/WX    TMP DP  RH WIND       PRES   REMARKS
ALPINE         CLEAR     45  26  46 SW6       30.40R
ANDREWS        FAIR      48  29  46 S9        30.30S
ARTESIA        NOT AVBL
BIG SPRING     CLEAR     51  31  46 S10       30.32F
CARLSBAD       CLEAR     46  30  53 S10       30.27F
DRYDEN           N/A     50  36  58 NE8       30.32F
FORT STOCKTON  CLEAR     50  31  48 SE7       30.31S
GUAD PASS      NOT AVBL
HOBBS          CLEAR     41  28  60 CALM      30.30F
MARFA          CLEAR     34  19  55 NW6       30.37F WCI  29
MIDLAND AIRPK  CLEAR     53  29  40 S12       30.30F
MIDLAND INTL   CLEAR     46  29  51 S8        30.29F
ODESSA         CLEAR     53  28  38 S15       30.30F
PECOS          CLEAR     39  28  65 CALM      30.29S
PRESIDIO       FAIR      54  27  34 N12       30.29F
SEMINOLE       CLEAR     42  29  59 S6        30.30F WCI  39
SNYDER         CLEAR     43  32  66 S5        30.30S WCI  40
WINK           CLEAR     49  27  42 SE10      30.27F
$$
...OTHER STATIONS IN TEXAS...

CITY           SKY/WX    TMP DP  RH WIND       PRES   REMARKS
ABILENE        CLEAR     49  31  49 S10       30.31F
AMARILLO       PTCLDY    42  30  62 S14       30.21F WCI  35
AUSTIN         CLEAR     39  36  89 CALM      30.40F
BROWNSVILLE    FOG       56  55  97 CALM      30.38F VSB 1/4
CORPUS CHRISTI PTCLDY    60  56  86 E8        30.39F
DALLAS FTW     CLEAR     46  28  49 S9        30.36F
DEL RIO        CLEAR     53  38  56 E8        30.35F
EL PASO        CLEAR     47  20  34 E7        30.29S
HOUSTON INT    CLEAR     48  38  68 CALM      30.43R
LUBBOCK        CLEAR     47  30  51 S12       30.26F
SAN ANGELO     CLEAR     49  33  54 S7        30.32F
SAN ANTONIO    CLEAR     48  39  71 NW3       30.40F
WACO           CLEAR     41  38  89 S5        30.39F WCI  38
WICHITA FALLS  NOT AVBL
$$
...OTHER LOCATIONS IN NEW MEXICO...

CITY           SKY/WX    TMP DP  RH WIND       PRES   REMARKS
ALAMAGORDO     CLEAR     43  19  39 E3        30.31F
ALBUQUERQUE    PTCLDY    40  19  43 SE3       30.34S
CANNON AFB     PTCLDY    41  26  54 SW6       30.26S WCI  37
CLOVIS         PTCLDY    41  25  52 SW12      30.25F WCI  34
HOLLOMAN AFB   CLEAR     40  21  47 E8        30.30S WCI  34
ROSWELL        CLEAR     38  29  70 SW6       30.27F WCI  33
RUIDOSO        CLEAR     39  19  45 W8        30.39S WCI  34
SANTA FE       PTCLDY    31  17  56 NE5       30.34F WCI  26
TRUTH OR CONSE CLEAR     46  20  35 NW8       30.32S
TUCUMCARI      CLEAR     48  28  46 SW8       30.19F
$$

USA.gov is the U.S. government's official web portal to all federal, state and local government web resources and services.